[[{"header":{"parameterUnit":"m.s-1","parameterCategory":1,"la1":30.2991,"la2":30.254,"lo1":-89.0895,"lo2":-89.0444,"dy":0.0017,"dx":0.0017,"nx":28,"ny":28,"refTime":"2023-09-28T03:00:00:Z","depth":0,"parameterNumber":2,"parameterNumberName":"U-component_of_WINDS"},"data":[0,0,0,0,0,0,0,0,0,0,0,0,0,0,0,0,0,0,0,0,0,0,0,0,0,0,0,0,0,0,0,0,0,0,0,0,0,0,0,0,0,0,0,0,0,0,0,0,0,0,0,0,0,0,0,0,0,0,-4.707,-4.707,0,-4.7039,-4.7039,-4.7039,-4.6884,-4.688,-4.6876,-4.6873,-4.6846,-4.6849,-4.6852,0,0,0,0,0,0,0,0,0,0,0,0,0,-4.7003,-4.7005,-4.707,-4.707,-4.707,-4.7039,-4.7039,-4.7038,-4.6884,-4.688,-4.6876,-4.6871,-4.6845,-4.6849,-4.6852,0,0,0,0,0,0,0,0,0,0,0,0,0,-4.7008,-4.7006,-4.7071,-4.6989,-4.6981,-4.7039,-4.7039,-4.7038,-4.6885,-4.688,-4.6874,-4.6869,-4.6844,-4.6848,-4.6852,-4.6988,0,0,-4.6865,-4.6867,0,0,0,0,0,0,0,0,-4.7008,-4.7011,-4.7001,-4.6995,-4.6986,-4.696,-4.7005,-4.7022,-4.6887,-4.6922,-4.6873,-4.6866,-4.6889,-4.6889,-4.6895,-4.6987,-4.6985,-4.6865,-4.6868,-4.6869,-4.6871,0,0,0,0,0,0,0,-4.7008,-4.7011,-4.7058,-4.7002,-4.6992,-4.6956,-4.6951,-4.7008,-4.6937,-4.6919,-4.6907,-4.6905,-4.6884,-4.6892,-4.6894,-4.6985,-4.6865,-4.6869,-4.6871,-4.6873,-4.7189,-4.7195,0,0,0,0,0,0,-4.7018,-4.7012,-4.7059,-4.7057,-4.6984,-4.6962,-4.6956,-4.6974,-4.6936,-4.6925,-4.691,-4.6898,-4.6888,-4.6889,-4.6892,-4.7049,-4.6869,-4.6873,-4.6875,-4.7183,-4.719,-4.7197,0,0,0,0,0,0,-4.7017,-4.7024,-4.706,-4.7032,-4.7033,-4.6969,-4.699,-4.6976,-4.6984,-4.6929,-4.6917,-4.6931,-4.6883,-4.6886,-4.6965,-4.7046,-4.6875,-4.6879,-4.7176,-4.7185,-4.7193,-4.7365,0,0,0,0,0,0,-4.7016,-4.7024,-4.7074,-4.7034,-4.7036,-4.7133,-4.6995,-4.698,-4.6991,-4.6975,-4.6945,-4.6935,-4.6879,-4.696,-4.697,-4.7049,-4.6882,-4.7168,-4.718,-4.7191,-4.7352,-4.7379,-4.7402,0,0,0,0,0,-4.7014,-4.7124,-4.7077,-4.7083,-4.7095,-4.7138,-4.7139,-4.707,-4.6998,-4.7048,-4.7013,-4.6936,-4.7036,-4.697,-4.6979,-4.7061,-4.7163,-4.7177,-4.719,-4.7341,-4.7373,-4.7401,0,0,0,0,0,0,-4.7176,-4.7117,-4.7064,-4.7164,-4.7157,-4.7111,-4.7172,-4.7107,-4.7121,-4.7106,-4.7022,-4.7017,-4.7109,-4.7093,-4.702,-4.7191,-4.7087,-4.7103,-4.7198,-4.7229,-4.7253,-4.7256,-4.6885,0,0,0,0,0,-4.7223,-4.726,-4.7207,-4.7301,-4.73,-4.7237,-4.7253,-4.7201,-4.7191,-4.7188,-4.7158,-4.7154,-4.7184,-4.7205,-4.723,-4.7349,-4.7342,-4.741,-4.7435,-4.7456,-4.7471,-4.7535,-4.7565,-4.7241,-4.7241,-4.724,0,0,-4.732,-4.7293,-4.7322,-4.7332,-4.7321,-4.7364,-4.7236,-4.7286,-4.7317,-4.7196,-4.7268,-4.7248,-4.7237,-4.7337,-4.738,-4.7326,-4.7559,-4.7473,-4.749,-4.7493,-4.7552,-4.7582,-4.761,-4.725,-4.7248,-4.7247,0,0,-4.752,-4.7503,-4.7579,-4.757,-4.7554,-4.7512,-4.7531,-4.7496,-4.7477,-4.7549,-4.7459,-4.7497,-4.755,-4.7547,-4.7552,-4.7754,-4.7685,-4.7765,-4.7895,-4.7959,-4.7984,-4.8006,-4.808,-4.8107,-4.778,-4.778,-4.7781,0,-4.7644,-4.7703,-4.7627,-4.7683,-4.7692,-4.7583,-4.7661,-4.7657,-4.7651,-4.766,-4.76,-4.7666,-4.7651,-4.775,-4.78,-4.7807,-4.7828,-4.7767,-4.7986,-4.8008,-4.8028,-4.8097,-4.8125,-4.779,-4.7789,-4.7788,-4.7787,0,-4.7857,-4.79,-4.7963,-4.7959,-4.7975,-4.8042,-4.7979,-4.8004,-4.7952,-4.7918,-4.7994,-4.7972,-4.7991,-4.8011,-4.7961,-4.8104,-4.8072,-4.8001,-4.7894,-4.807,-4.8133,-4.8159,-4.7804,-4.7801,-4.7798,-4.7795,0,0,-4.8155,-4.811,-4.8134,-4.8132,-4.8108,-4.8141,-4.8205,-4.8222,-4.8247,-4.8248,-4.83,-4.8349,-4.8284,-4.829,-4.8239,-4.8295,-4.8459,-4.8217,-4.8215,-4.8263,-4.8618,-4.8672,-4.8704,-4.8413,-4.8418,-4.8421,-4.8619,0,-4.8347,-4.8451,-4.8386,-4.8501,-4.8541,-4.844,-4.8496,-4.8489,-4.846,-4.8491,-4.8459,-4.8495,-4.8405,-4.8409,-4.8459,-4.8428,-4.8529,-4.8413,-4.8464,-4.8466,-4.8469,-4.8737,-4.8793,-4.8981,-4.8644,-4.8648,-4.8651,0,-4.8583,-4.8593,-4.8713,-4.8683,-4.8697,-4.8748,-4.8761,-4.8791,-4.8783,-4.8758,-4.8767,-4.8702,-4.8766,-4.8661,-4.8749,-4.8672,-4.8689,-4.8677,-4.8683,-4.8685,-4.8569,-4.8747,-4.9039,-4.9067,-4.8689,-4.8686,-4.8683,0,-4.879,-4.8834,-4.8911,-4.8913,-4.8879,-4.8918,-4.8907,-4.8892,-4.8908,-4.892,-4.893,-4.895,-4.8962,-4.898,-4.8924,-4.8853,-4.9021,-4.8911,-4.9003,-4.9005,-4.9043,-4.9041,-4.9342,-4.9054,-4.9054,-4.9053,-4.9052,0,-4.9011,-4.9088,-4.9004,-4.9052,-4.9136,-4.9063,-4.9149,-4.9127,-4.9116,-4.9159,-4.9074,-4.9118,-4.9041,-4.9078,-4.9035,-4.9116,-4.9121,-4.9104,-4.9092,-4.9112,-4.9115,-4.9122,-4.9108,-4.906,-4.9059,-4.9057,-4.9056,0,-4.9255,-4.9202,-4.928,-4.9243,-4.9236,-4.93,-4.9269,-4.9313,-4.9279,-4.9335,-4.9345,-4.9291,-4.933,-4.9277,-4.931,-4.9282,-4.9393,-4.936,-4.9395,-4.9386,-4.9482,-4.9474,-4.9799,-4.9838,-4.9525,-4.9528,-4.953,0,-4.9399,-4.9456,-4.9426,-4.9449,-4.9442,-4.9479,-4.9495,-4.9426,-4.9446,-4.9442,-4.9488,-4.9519,-4.9541,-4.9608,-4.9574,-4.9601,-4.9569,-4.9681,-4.9572,-4.9592,-4.9572,-4.9569,-4.9576,-4.9703,-4.9707,-4.971,-4.9713,0,-4.9662,-4.9633,-4.9658,-4.9676,-4.9697,-4.9707,-4.9712,-4.9736,-4.9664,-4.9692,-4.973,-4.9747,-4.9781,-4.9815,-4.9832,-4.9823,-4.9758,-4.9747,-4.977,-4.9791,-4.9809,-4.9802,-4.9456,-4.974,-4.9737,-4.9735,-4.9734,-4.9733,-4.986,-4.9907,-4.9894,-4.9926,-4.9922,-4.9929,-4.9969,-4.994,-4.997,-4.9992,-4.995,-5.0,-4.9993,-5.0009,-5.0008,-5.0047,-4.9999,-5.0032,-5.004,-5.005,-5.0065,-4.9803,-5.005,-5.005,-5.0049,-5.0048,-5.0047,0,-5.0119,-5.0105,-5.0136,-5.0145,-5.0171,-5.0106,-5.0108,-5.0135,-5.0179,-5.0177,-5.02,-5.0246,-5.0279,-5.0249,-5.0276,-5.0314,-5.0285,-5.0324,-5.032,-5.032,-5.0106,-5.0084,-5.0347,-5.0347,-5.0347,-5.0347,-5.0347,-5.0347,-5.0256,-5.0332,-5.0303,-5.0378,-5.0365,-5.0411,-5.0419,-5.0426,-5.0424,-5.0479,-5.0505,-5.0485,-5.0473,-5.0499,-5.0527,-5.0518,-5.0532,-5.0582,-5.0563,-5.0364,-5.0334,-5.0306,-5.0285,-5.0586,-5.0586,-5.0773,-5.0774,-5.0776]},{"header":{"parameterUnit":"m.s-1","parameterCategory":1,"la1":30.2991,"la2":30.254,"lo1":-89.0895,"lo2":-89.0444,"dy":0.0017,"dx":0.0017,"nx":28,"ny":28,"refTime":"2023-09-28T03:00:00:Z","depth":0,"parameterNumber":3,"parameterNumberName":"V-component_of_WINDS"},"data":[0,0,0,0,0,0,0,0,0,0,0,0,0,0,0,0,0,0,0,0,0,0,0,0,0,0,0,0,0,0,0,0,0,0,0,0,0,0,0,0,0,0,0,0,0,0,0,0,0,0,0,0,0,0,0,0,0,0,-0.612,-0.6119,0,-0.6084,-0.6084,-0.6084,-0.6024,-0.6023,-0.6022,-0.6021,-0.5986,-0.5986,-0.5986,0,0,0,0,0,0,0,0,0,0,0,0,0,-0.6137,-0.6137,-0.612,-0.6119,-0.6119,-0.6084,-0.6084,-0.6083,-0.6024,-0.6023,-0.6022,-0.602,-0.5986,-0.5986,-0.5986,0,0,0,0,0,0,0,0,0,0,0,0,0,-0.6118,-0.6137,-0.612,-0.6085,-0.6082,-0.6085,-0.6084,-0.6083,-0.6025,-0.6023,-0.6021,-0.602,-0.5986,-0.5986,-0.5986,-0.602,0,0,-0.5987,-0.5987,0,0,0,0,0,0,0,0,-0.6119,-0.6118,-0.6091,-0.6088,-0.6084,-0.6057,-0.6077,-0.6062,-0.6025,-0.6046,-0.6021,-0.6019,-0.6011,-0.6009,-0.6006,-0.6019,-0.6017,-0.5987,-0.5987,-0.5987,-0.5987,0,0,0,0,0,0,0,-0.6121,-0.6119,-0.6106,-0.609,-0.6086,-0.6072,-0.6067,-0.6074,-0.6039,-0.6044,-0.604,-0.6037,-0.6009,-0.6006,-0.6005,-0.6017,-0.5987,-0.5987,-0.5987,-0.5987,-0.6055,-0.6057,0,0,0,0,0,0,-0.6127,-0.612,-0.6107,-0.6105,-0.6098,-0.6073,-0.6068,-0.6067,-0.6038,-0.6032,-0.6038,-0.6034,-0.6007,-0.6005,-0.6003,-0.6042,-0.5987,-0.5987,-0.5987,-0.6054,-0.6056,-0.6058,0,0,0,0,0,0,-0.6128,-0.6126,-0.6108,-0.6111,-0.6108,-0.6074,-0.6074,-0.6067,-0.6065,-0.6033,-0.6027,-0.6042,-0.6005,-0.6003,-0.6016,-0.604,-0.5987,-0.5987,-0.6052,-0.6054,-0.6057,-0.6119,0,0,0,0,0,0,-0.6128,-0.6127,-0.614,-0.6112,-0.6108,-0.6122,-0.6076,-0.6068,-0.6065,-0.6059,-0.6035,-0.603,-0.6004,-0.6017,-0.6017,-0.6039,-0.5987,-0.6049,-0.6053,-0.6056,-0.6115,-0.6123,-0.6131,0,0,0,0,0,-0.6129,-0.6159,-0.6141,-0.6139,-0.6123,-0.6124,-0.6121,-0.6091,-0.6067,-0.608,-0.6059,-0.603,-0.6037,-0.6018,-0.6018,-0.6041,-0.6048,-0.6052,-0.6056,-0.6111,-0.6122,-0.613,0,0,0,0,0,0,-0.619,-0.6155,-0.6134,-0.6155,-0.6143,-0.6114,-0.6128,-0.6103,-0.6097,-0.6092,-0.6054,-0.605,-0.6068,-0.6055,-0.6035,-0.6072,-0.6038,-0.6042,-0.608,-0.609,-0.6098,-0.6101,-0.5987,0,0,0,0,0,-0.6206,-0.621,-0.6178,-0.62,-0.6195,-0.6163,-0.6162,-0.6139,-0.6125,-0.612,-0.61,-0.6088,-0.6087,-0.6087,-0.6085,-0.6112,-0.6106,-0.6127,-0.6135,-0.6142,-0.6146,-0.616,-0.6169,-0.607,-0.607,-0.607,0,0,-0.6239,-0.622,-0.6225,-0.6212,-0.6199,-0.6204,-0.6159,-0.6165,-0.6169,-0.6121,-0.6132,-0.6118,-0.6101,-0.6122,-0.613,-0.6112,-0.6172,-0.6147,-0.6152,-0.6153,-0.6165,-0.6174,-0.6183,-0.6073,-0.6072,-0.6072,0,0,-0.6302,-0.6288,-0.6305,-0.6293,-0.6275,-0.6253,-0.6257,-0.6231,-0.622,-0.6231,-0.6195,-0.6198,-0.6197,-0.6187,-0.6182,-0.624,-0.6213,-0.624,-0.6283,-0.6296,-0.6304,-0.6311,-0.6333,-0.6341,-0.6244,-0.6244,-0.6244,0,-0.6346,-0.6351,-0.6317,-0.6326,-0.6321,-0.6277,-0.6294,-0.6285,-0.6267,-0.6265,-0.6245,-0.6243,-0.6228,-0.6246,-0.626,-0.6257,-0.6261,-0.6244,-0.6306,-0.6312,-0.6318,-0.6338,-0.6347,-0.6248,-0.6247,-0.6247,-0.6247,0,-0.6406,-0.641,-0.6426,-0.641,-0.6407,-0.642,-0.6387,-0.6389,-0.6366,-0.6347,-0.6358,-0.6339,-0.6332,-0.6334,-0.6312,-0.6349,-0.6339,-0.6313,-0.6278,-0.6332,-0.635,-0.6357,-0.6253,-0.6252,-0.625,-0.625,0,0,-0.6508,-0.6472,-0.6478,-0.647,-0.6446,-0.6449,-0.646,-0.6453,-0.6455,-0.6443,-0.6452,-0.6452,-0.6428,-0.6422,-0.6398,-0.641,-0.6458,-0.6383,-0.6382,-0.6398,-0.6498,-0.6519,-0.6529,-0.644,-0.6441,-0.6442,-0.65,0,-0.6567,-0.6584,-0.6553,-0.6577,-0.6581,-0.6538,-0.6548,-0.6534,-0.6516,-0.6517,-0.6496,-0.6497,-0.6465,-0.6461,-0.6471,-0.6451,-0.6478,-0.6446,-0.6448,-0.6449,-0.6455,-0.6538,-0.656,-0.6616,-0.6507,-0.6508,-0.6509,0,-0.6639,-0.6631,-0.6656,-0.663,-0.663,-0.6639,-0.663,-0.6631,-0.6615,-0.6601,-0.6594,-0.6566,-0.6575,-0.654,-0.6552,-0.6531,-0.6529,-0.652,-0.6521,-0.6521,-0.6483,-0.6542,-0.6632,-0.6641,-0.652,-0.6519,-0.6518,0,-0.6712,-0.6707,-0.6721,-0.6716,-0.6686,-0.6694,-0.6682,-0.6664,-0.6661,-0.6653,-0.6651,-0.6644,-0.6641,-0.6636,-0.6607,-0.6584,-0.6623,-0.6585,-0.6612,-0.6613,-0.6624,-0.6624,-0.6717,-0.6621,-0.6621,-0.6621,-0.6621,0,-0.6782,-0.6799,-0.6754,-0.6763,-0.6781,-0.6744,-0.6763,-0.6747,-0.6731,-0.6736,-0.6698,-0.6704,-0.6664,-0.6666,-0.6643,-0.6657,-0.6655,-0.6645,-0.6639,-0.6649,-0.665,-0.6649,-0.6645,-0.6623,-0.6622,-0.6622,-0.6622,0,-0.6868,-0.6838,-0.6851,-0.6821,-0.6814,-0.6829,-0.6804,-0.6811,-0.679,-0.6797,-0.6796,-0.6764,-0.6763,-0.6733,-0.6726,-0.6711,-0.6735,-0.6721,-0.6741,-0.6737,-0.6766,-0.6764,-0.6862,-0.6873,-0.677,-0.6771,-0.6772,0,-0.6915,-0.6927,-0.6899,-0.6899,-0.6889,-0.689,-0.6888,-0.6852,-0.6851,-0.6833,-0.6842,-0.6839,-0.6834,-0.6835,-0.6811,-0.6806,-0.6792,-0.6827,-0.6792,-0.6801,-0.6794,-0.6794,-0.6796,-0.6835,-0.6837,-0.6838,-0.6839,0,-0.7003,-0.6987,-0.6984,-0.6977,-0.6974,-0.6966,-0.6956,-0.6959,-0.6919,-0.692,-0.6919,-0.6915,-0.6908,-0.6905,-0.6895,-0.6883,-0.6855,-0.685,-0.6856,-0.6867,-0.6878,-0.6873,-0.6763,-0.6848,-0.6847,-0.6846,-0.6846,-0.6845,-0.7071,-0.708,-0.7061,-0.7059,-0.7048,-0.7039,-0.7044,-0.7024,-0.7022,-0.7013,-0.6992,-0.6995,-0.6978,-0.6962,-0.6952,-0.6953,-0.6936,-0.6944,-0.6947,-0.695,-0.6956,-0.6877,-0.6951,-0.6951,-0.6951,-0.695,-0.695,0,-0.7157,-0.7143,-0.7142,-0.7128,-0.7127,-0.7099,-0.7086,-0.7087,-0.709,-0.7076,-0.7072,-0.7071,-0.7068,-0.7043,-0.7037,-0.7043,-0.703,-0.7043,-0.7043,-0.704,-0.6971,-0.6967,-0.7054,-0.7054,-0.7054,-0.7054,-0.7054,-0.7054,-0.7202,-0.7216,-0.7198,-0.7205,-0.7191,-0.7193,-0.7188,-0.718,-0.7169,-0.7169,-0.7166,-0.715,-0.7132,-0.7124,-0.712,-0.7113,-0.7113,-0.713,-0.7119,-0.7055,-0.7045,-0.7036,-0.7032,-0.713,-0.713,-0.7188,-0.7188,-0.7189]}]]